Winter Park, USA 16 day weather forecast

Slopes altitude range 2745 m - 3675m

Number of lifts: 22 Pistes: 143km

In some cases the lift and piste totals shown are for the ski domain (e.g. Three Valleys) rather than individual resort (e.g. Courchevel)

Overview

The 16 day weather forecast is fully updated 4 times every day.

    • Tue 17 JUL 2018
    • Tue 17
    • 11C 12C
    • Wed 18 JUL 2018
    • Wed 18
    • 12C 13C
    • Thu 19 JUL 2018
    • Thu 19
    • 12C 13C
    • Fri 20 JUL 2018
    • Fri 20
    • 11C 14C
    • Sat 21 JUL 2018
    • Sat 21
    • 13C 14C
    • Sun 22 JUL 2018
    • Sun 22
    • 15C 17C
    • Mon 23 JUL 2018
    • Mon 23
    • 12C 13C
    • Tue 24 JUL 2018
    • Tue 24
    • 11C 13C
    • Wed 25 JUL 2018
    • Wed 25
    • 18C 20C
    • Thu 26 JUL 2018
    • Thu 26
    • 16C 20C
    • Fri 27 JUL 2018
    • Fri 27
    • 20C 32C
    • Sat 28 JUL 2018
    • Sat 28
    • 20C 28C
    • Sun 29 JUL 2018
    • Sun 29
    • 20C 31C
    • Mon 30 JUL 2018
    • Mon 30
    • 21C 33C
    • Tue 31 JUL 2018
    • Tue 31
    • 22C 33C
    • Wed 01 AUG 2018
    • Wed 01
    • 21C 30C

Date:

Time Type 0°C level Temp Chill Snow Cloud Speed Gust Dir Press
3:00 4985m 14°C 14_3 0cm 42% 3mph 3mph 1018mB
6:00 5192m 12°C 12_6 0cm 67% 6mph 6mph 1020mB
9:00 5181m 11°C 11_7 0cm 34% 7mph 8mph 1019mB
12:00 5116m 12°C 12_7 0cm 66% 7mph 8mph 1020mB
15:00 5004m 20°C 20_2 0cm 99% 2mph 3mph 1019mB
18:00 4947m 25°C 25_4 0cm 68% 4mph 5mph 1017mB
21:00 5034m 24°C 24_6 0cm 88% 6mph 7mph 1015mB
0:00 5067m 22°C 22_7 0cm 87% 7mph 7mph 1014mB
3:00 5075m 17°C 17_5 0cm 44% 5mph 7mph 1017mB
6:00 5091m 13°C 13_7 0cm 36% 7mph 8mph 1018mB
9:00 5139m 12°C 12_8 0cm 65% 8mph 9mph 1019mB
12:00 5009m 13°C 13_9 0cm 35% 9mph 13mph 1020mB
15:00 5184m 19°C 19_9 0cm 0% 9mph 17mph 1018mB
18:00 5078m 23°C 23_12 0cm 0% 12mph 17mph 1016mB
21:00 5180m 23°C 23_13 0cm 0% 13mph 15mph 1014mB
0:00 5314m 23°C 23_13 0cm 0% 13mph 17mph 1013mB
3:00 5288m 15°C 15_9 0cm 25% 9mph 15mph 1016mB
6:00 5206m 13°C 13_9 0cm 58% 9mph 13mph 1018mB
9:00 5116m 12°C 12_9 0cm 99% 9mph 13mph 1018mB
12:00 5075m 13°C 13_9 0cm 56% 9mph 10mph 1019mB
15:00 5103m 21°C 21_8 0cm 0% 8mph 13mph 1017mB
18:00 5120m 26°C 26_7 0cm 7% 7mph 11mph 1015mB
21:00 5298m 26°C 26_9 0cm 75% 9mph 12mph 1012mB
0:00 5376m 25°C 25_11 0cm 59% 11mph 12mph 1011mB
3:00 5307m 17°C 17_6 0cm 81% 6mph 7mph 1015mB
6:00 5194m 14°C 14_2 0cm 80% 2mph 3mph 1018mB
9:00 5185m 12°C 12_4 0cm 42% 4mph 5mph 1019mB
12:00 5196m 14°C 14_5 0cm 21% 5mph 6mph 1020mB
15:00 5217m 21°C 21_1 0cm 0% 1mph 2mph 1019mB
18:00 5143m 25°C 25_5 0cm 1% 5mph 6mph 1017mB
21:00 5156m 25°C 25_8 0cm 48% 8mph 10mph 1015mB
0:00 5024m 21°C 21_11 0cm 74% 11mph 12mph 1015mB
3:00 5219m 14°C 14_3 0cm 100% 3mph 4mph 1018mB
6:00 5235m 14°C 14_2 0cm 100% 2mph 2mph 1020mB
9:00 5228m 13°C 13_6 0cm 100% 6mph 7mph 1020mB
12:00 5258m 14°C 14_6 0cm 100% 6mph 7mph 1020mB
15:00 5252m 22°C 22_2 0cm 31% 2mph 4mph 1018mB
18:00 5219m 28°C 28_2 0cm 18% 2mph 5mph 1015mB
21:00 5262m 26°C 26_4 0cm 51% 4mph 7mph 1013mB
0:00 5292m 24°C 24_2 0cm 73% 2mph 3mph 1014mB
3:00 5241m 19°C 19_6 0cm 72% 6mph 7mph 1017mB
6:00 5353m 17°C 17_7 0cm 85% 7mph 8mph 1017mB
9:00 5342m 15°C 15_9 0cm 84% 9mph 13mph 1017mB
12:00 5250m 17°C 17_9 0cm 92% 9mph 15mph 1018mB
15:00 5241m 19°C 19_7 0cm 99% 7mph 10mph 1018mB
18:00 5152m 22°C 22_4 0cm 99% 4mph 4mph 1016mB
21:00 5128m 21°C 21_4 0cm 100% 4mph 4mph 1015mB
0:00 5264m 21°C 21_1 0cm 100% 1mph 4mph 1017mB
3:00 5164m 14°C 14_1 0cm 100% 1mph 2mph 1018mB
6:00 5190m 13°C 13_6 0cm 100% 6mph 8mph 1019mB
9:00 5163m 12°C 12_8 0cm 98% 8mph 12mph 1018mB
12:00 5212m 13°C 13_7 0cm 98% 7mph 8mph 1018mB
15:00 5145m 20°C 20_4 0cm 95% 4mph 6mph 1017mB
18:00 5084m 27°C 27_3 0cm 85% 3mph 3mph 1015mB
21:00 5118m 20°C 20_5 0cm 99% 5mph 5mph 1013mB
0:00 5182m 19°C 19_2 0cm 99% 2mph 3mph 1014mB
3:00 5154m 15°C 15_4 0cm 5% 4mph 5mph 1016mB
6:00 5041m 12°C 12_7 0cm 20% 7mph 8mph 1018mB
9:00 5006m 12°C 12_6 0cm 66% 6mph 7mph 1018mB
12:00 5073m 13°C 13_5 0cm 37% 5mph 6mph 1020mB
15:00 4951m 22°C 22_5 0cm 0% 5mph 6mph 1019mB
18:00 5024m 28°C 28_7 0cm 0% 7mph 6mph 1017mB
21:00 5089m 28°C 28_11 0cm 0% 11mph 9mph 1015mB
0:00 5163m 28°C 28_10 0cm 8% 10mph 9mph 1014mB
3:00 5087m 24°C 24_8 0cm 7% 8mph 11mph 1016mB
6:00 5039m 20°C 20_10 0cm 4% 10mph 14mph 1018mB
9:00 4916m 18°C 18_10 0cm 33% 10mph 12mph 1019mB
12:00 4893m 20°C 20_6 0cm 59% 6mph 9mph 1020mB
15:00 4831m 20°C 20_7 0cm 60% 7mph 9mph 1020mB
18:00 4907m 25°C 25_9 0cm 50% 9mph 9mph 1019mB
21:00 5011m 25°C 25_15 0cm 1% 15mph 14mph 1016mB
0:00 5064m 25°C 25_11 0cm 13% 11mph 12mph 1016mB
3:00 5031m 21°C 21_6 0cm 56% 6mph 12mph 1019mB
6:00 4931m 19°C 19_3 0cm 36% 3mph 4mph 1020mB
9:00 4916m 18°C 18_5 0cm 0% 5mph 7mph 1020mB
12:00 4877m 20°C 20_2 0cm 1% 2mph 3mph 1020mB
15:00 4892m 24°C 24_4 0cm 4% 4mph 3mph 1018mB
18:00 5013m 31°C 31_10 0cm 1% 10mph 7mph 1016mB
21:00 5000m 31°C 31_12 0cm 1% 12mph 8mph 1014mB
0:00 5083m 31°C 31_12 0cm 2% 12mph 10mph 1013mB
Afternoon 0mm 0 4994m 32°C 32_7 0cm 3% 7mph 9mph 1020mB
Morning 0.0364583mm 0 5142m 20°C 20_4 0cm 26% 4mph 4mph 1014mB
Afternoon 0.0260417mm 0.1875 4946m 28°C 28_7 0cm 22% 7mph 9mph 1018mB
Morning 0mm 0 5136m 20°C 20_4 0cm 27% 4mph 4mph 1014mB
Afternoon 0mm 0 5131m 31°C 31_7 0cm 18% 7mph 9mph 1020mB
Morning 0.0416667mm 0.5 5245m 20°C 20_6 0cm 40% 6mph 8mph 1013mB
Afternoon 0.0260417mm 0.3125 5261m 33°C 33_8 0cm 30% 8mph 10mph 1017mB
Morning 0.0677083mm 0.8125 5391m 22°C 22_2 0cm 33% 2mph 2mph 1011mB
Afternoon 0.09375mm 1.125 5348m 33°C 33_10 0cm 84% 10mph 12mph 1015mB
Morning 0mm 0 5376m 23°C 23_7 0cm 100% 7mph 9mph 1014mB
Afternoon 0mm 0 5558m 30°C 30_8 0cm 82% 8mph 10mph 1018mB
Morning 0.00520833mm 0.0625 5351m 22°C 22_3 0cm 11% 3mph 4mph 1014mB

16 day outlook at a glance

Forecast issued: 17/07/2018 12:19:13

Chat

Your comments and questions. In a resort? Let us know what it's like!


Characters left 250

For terms and conditions see Readers Comments on the Cookie and privacy policy page.